Location: Sternwarte ZA, Rosenfeld-Brittheim
(48.2889°N, 8.6789°E)
Time: 05:47:06
(UTC+01:00)

ISS - Pass Details

Date: 03 December 2019
Orbit: 411 x 421 km, 51.6° (Epoch: 15 December)

Event Time Altitude Azimuth Distance (km) Brightness Sun altitude
Rises 19:12:08 0° 291° (WNW) 2,363 1.1 -25.7°
Reaches altitude 10° 19:14:14 10° 293° (WNW) 1,500 -0.2 -26.0°
Enters shadow 19:15:42 24° 296° (WNW) 920 -1.5 -26.3°
